| time (UTC) | temp C | wind direction | speed KPH | gust KPH | rain 1hr cm | rain 24hr cm | rain mn cm | humidity % | barometer mb |
| 20260504033108 | 7 | 315 | 0.0 | 3.2 | 0.00 | 0.00 | 0.00 | 82 | 1018.9 |
| 20260504032104 | 7 | 0.0 | 0.0 | 0.00 | 0.00 | 0.00 | 82 | 1019.0 | |
| 20260504031100 | 7 | 0.0 | 0.0 | 0.00 | 0.00 | 0.00 | 82 | 1018.9 | |
| 20260504030055 | 8 | 0.0 | 0.0 | 0.00 | 0.00 | 0.00 | 82 | 1018.9 | |
| 20260504025051 | 8 | 0.0 | 0.0 | 0.00 | 0.00 | 0.00 | 81 | 1018.9 | |
| 20260504024047 | 8 | 0.0 | 0.0 | 0.00 | 0.00 | 0.00 | 81 | 1018.9 | |
| 20260504023042 | 8 | 0.0 | 0.0 | 0.00 | 0.00 | 0.00 | 81 | 1019.0 | |
| 20260504022038 | 8 | 315 | 1.6 | 4.8 | 0.00 | 0.00 | 0.00 | 80 | 1019.2 |
| 20260504021034 | 8 | 0.0 | 0.0 | 0.00 | 0.00 | 0.00 | 79 | 1019.1 | |
| 20260504020030 | 8 | 0.0 | 0.0 | 0.00 | 0.00 | 0.00 | 79 | 1019.1 | |
| 20260504015207 | 8 | 315 | 1.6 | 3.2 | 0.00 | 0.00 | 0.00 | 78 | 1019.0 |
| 20260504014021 | 9 | 0.0 | 0.0 | 0.00 | 0.00 | 0.00 | 77 | 1019.0 | |
| 20260504013017 | 9 | 315 | 0.0 | 3.2 | 0.00 | 0.00 | 0.00 | 77 | 1018.9 |
| 20260504012213 | 9 | 0.0 | 0.0 | 0.00 | 0.00 | 0.00 | 76 | 1018.9 | |
| 20260504011109 | 10 | 315 | 0.0 | 3.2 | 0.00 | 0.00 | 0.00 | 76 | 1018.9 |
| 20260504010104 | 10 | 315 | 0.0 | 3.2 | 0.00 | 0.00 | 0.00 | 76 | 1019.0 |
| 20260504005100 | 10 | 315 | 0.0 | 3.2 | 0.00 | 0.00 | 0.00 | 76 | 1018.8 |
| 20260504004056 | 10 | 0.0 | 0.0 | 0.00 | 0.00 | 0.00 | 76 | 1018.8 | |
| 20260504003113 | 10 | 0.0 | 0.0 | 0.00 | 0.00 | 0.00 | 75 | 1019.0 | |
| 20260504002128 | 10 | 0.0 | 0.0 | 0.00 | 0.00 | 0.00 | 75 | 1018.9 | |
| 20260504001043 | 10 | 0.0 | 0.0 | 0.00 | 0.00 | 0.00 | 74 | 1019.0 | |
| 20260504000040 | 10 | 0.0 | 0.0 | 0.00 | 0.00 | 0.00 | 74 | 1019.0 | |
| 20260503235035 | 10 | 0.0 | 0.0 | 0.00 | 0.00 | 0.00 | 73 | 1019.1 | |
| 20260503234031 | 10 | 0.0 | 1.6 | 0.00 | 0.00 | 0.00 | 74 | 1019.1 | |
| 20260503233027 | 10 | 0.0 | 0.0 | 0.00 | 0.00 | 0.00 | 74 | 1019.3 | |
| 20260503232022 | 10 | 0.0 | 0.0 | 0.00 | 0.00 | 0.00 | 74 | 1019.2 | |
| 20260503231018 | 10 | 0.0 | 0.0 | 0.00 | 0.00 | 0.00 | 73 | 1019.1 | |
| 20260503230114 | 11 | 315 | 1.6 | 3.2 | 0.00 | 0.00 | 0.00 | 72 | 1019.2 |
| 20260503225130 | 11 | 0.0 | 0.0 | 0.00 | 0.00 | 0.00 | 72 | 1019.2 | |
| 20260503224126 | 11 | 315 | 0.0 | 3.2 | 0.00 | 0.00 | 0.00 | 72 | 1019.2 |
| 20260503223121 | 11 | 0.0 | 0.0 | 0.00 | 0.00 | 0.00 | 72 | 1019.1 | |
| 20260503222058 | 11 | 0.0 | 0.0 | 0.00 | 0.00 | 0.00 | 71 | 1019.1 | |
| 20260503221113 | 11 | 0.0 | 0.0 | 0.00 | 0.00 | 0.00 | 71 | 1019.1 | |
| 20260503220049 | 11 | 315 | 0.0 | 3.2 | 0.00 | 0.00 | 0.00 | 71 | 1019.0 |
| 20260503215044 | 12 | 315 | 1.6 | 6.4 | 0.00 | 0.00 | 0.00 | 70 | 1018.8 |
| 20260503214100 | 12 | 0.0 | 1.6 | 0.00 | 0.00 | 0.00 | 70 | 1018.7 | |
| 20260503213036 | 12 | 0.0 | 1.6 | 0.00 | 0.00 | 0.00 | 70 | 1018.6 | |
| 20260503212031 | 12 | 0.0 | 1.6 | 0.00 | 0.00 | 0.00 | 65 | 1018.7 | |
| 20260503211027 | 12 | 0.0 | 0.0 | 0.00 | 0.00 | 0.00 | 64 | 1018.7 | |
| 20260503210023 | 12 | 0.0 | 1.6 | 0.00 | 0.00 | 0.00 | 63 | 1018.7 | |
| 20260503205019 | 13 | 315 | 0.0 | 3.2 | 0.00 | 0.00 | 0.00 | 62 | 1018.6 |
| 20260503204115 | 13 | 315 | 0.0 | 3.2 | 0.00 | 0.00 | 0.00 | 61 | 1018.4 |
| 20260503203110 | 14 | 315 | 1.6 | 3.2 | 0.00 | 0.00 | 0.00 | 60 | 1018.4 |
| 20260503202106 | 14 | 315 | 0.0 | 3.2 | 0.00 | 0.00 | 0.00 | 60 | 1018.4 |
| 20260503201142 | 15 | 0 | 0.0 | 3.2 | 0.00 | 0.00 | 0.00 | 60 | 1018.4 |
| 20260503200058 | 15 | 352 | 1.6 | 4.8 | 0.00 | 0.00 | 0.00 | 60 | 1018.2 |
| 20260503195053 | 15 | 321 | 1.6 | 4.8 | 0.00 | 0.00 | 0.00 | 61 | 1018.2 |
| 20260503194050 | 14 | 315 | 1.6 | 3.2 | 0.00 | 0.00 | 0.00 | 61 | 1018.2 |
| 20260503193045 | 14 | 315 | 0.0 | 3.2 | 0.00 | 0.00 | 0.00 | 61 | 1018.1 |
| 20260503192041 | 15 | 315 | 0.0 | 3.2 | 0.00 | 0.00 | 0.00 | 60 | 1018.1 |
| 20260503191036 | 16 | 330 | 4.8 | 6.4 | 0.00 | 0.00 | 0.00 | 55 | 1017.9 |
| 20260503190032 | 16 | 0 | 3.2 | 4.8 | 0.00 | 0.00 | 0.00 | 55 | 1017.7 |
| 20260503185028 | 16 | 0 | 3.2 | 4.8 | 0.00 | 0.00 | 0.00 | 54 | 1017.9 |
| 20260503184024 | 16 | 0 | 1.6 | 3.2 | 0.00 | 0.00 | 0.00 | 54 | 1017.6 |
| 20260503183040 | 16 | 0.0 | 0.0 | 0.00 | 0.00 | 0.00 | 54 | 1017.5 | |
| 20260503182115 | 17 | 0 | 0.0 | 3.2 | 0.00 | 0.00 | 0.00 | 53 | 1017.4 |
| 20260503181111 | 17 | 0 | 1.6 | 6.4 | 0.00 | 0.00 | 0.00 | 50 | 1017.5 |
| 20260503180107 | 17 | 343 | 4.8 | 9.7 | 0.00 | 0.00 | 0.00 | 50 | 1017.3 |
| 20260503175103 | 18 | 315 | 4.8 | 6.4 | 0.00 | 0.00 | 0.00 | 48 | 1017.2 |
| 20260503174058 | 18 | 338 | 1.6 | 3.2 | 0.00 | 0.00 | 0.00 | 47 | 1017.1 |
| 20260503173054 | 18 | 324 | 3.2 | 9.7 | 0.00 | 0.00 | 0.00 | 46 | 1017.1 |
| 20260503172050 | 19 | 338 | 4.8 | 11.3 | 0.00 | 0.00 | 0.00 | 45 | 1017.0 |
| 20260503171046 | 19 | 327 | 1.6 | 6.4 | 0.00 | 0.00 | 0.00 | 45 | 1017.1 |
| 20260503150110 | 21 | 332 | 11.3 | 19.3 | 0.00 | 0.00 | 0.00 | 41 | 1017.2 |
| 20260503131102 | 22 | 225 | 6.4 | 9.7 | 0.00 | 0.00 | 0.00 | 22 | 1017.0 |
| 20260503110107 | 20 | 278 | 8.0 | 12.9 | 0.00 | 0.00 | 0.00 | 30 | 1018.3 |
| 20260503081054 | 13 | 315 | 4.8 | 6.4 | 0.00 | 0.00 | 0.00 | 51 | 1020.2 |
| 20260503072033 | 11 | 315 | 1.6 | 4.8 | 0.00 | 0.00 | 0.00 | 65 | 1020.8 |
| 20260503071029 | 10 | 315 | 3.2 | 4.8 | 0.00 | 0.00 | 0.00 | 67 | 1020.8 |
| 20260503055056 | 6 | 315 | 1.6 | 3.2 | 0.00 | 0.00 | 0.00 | 82 | 1021.1 |
| 20260503054051 | 5 | 315 | 0.0 | 1.6 | 0.00 | 0.00 | 0.00 | 83 | 1021.0 |
| 20260503053047 | 4 | 315 | 1.6 | 3.2 | 0.00 | 0.00 | 0.00 | 83 | 1021.0 |
| 20260503052123 | 3 | 0.0 | 1.6 | 0.00 | 0.00 | 0.00 | 83 | 1020.9 | |
| 20260503051039 | 3 | 315 | 1.6 | 3.2 | 0.00 | 0.00 | 0.00 | 83 | 1021.0 |
| 20260503050036 | 3 | 0.0 | 0.0 | 0.00 | 0.00 | 0.00 | 83 | 1020.7 | |
| 20260503045030 | 3 | 0.0 | 0.0 | 0.00 | 0.00 | 0.00 | 83 | 1020.8 | |
| 20260503044026 | 3 | 0.0 | 3.2 | 0.00 | 0.00 | 0.00 | 83 | 1020.7 | |
| 20260503043022 | 3 | 302 | 3.2 | 4.8 | 0.00 | 0.00 | 0.00 | 83 | 1020.8 |
| 20260503042017 | 3 | 0.0 | 0.0 | 0.00 | 0.00 | 0.00 | 82 | 1020.7 | |
| 20260503041113 | 3 | 0.0 | 0.0 | 0.00 | 0.00 | 0.00 | 82 | 1020.7 | |
| 20260503040109 | 3 | 0.0 | 0.0 | 0.00 | 0.00 | 0.00 | 82 | 1020.8 | |
| 20260503035105 | 3 | 0.0 | 0.0 | 0.00 | 0.00 | 0.00 | 81 | 1020.6 | |
| 20260503034101 | 3 | 0.0 | 0.0 | 0.00 | 0.00 | 0.00 | 81 | 1020.6 |